Weather History for Hutchinson, KS

Change the Weather History Date:

Thursday, November 22, 2012

  Actual Average Record
Temperature  
Mean Temperature 59 °F -  
Max Temperature 73 °F 51 °F 73 °F (2012)
Min Temperature 44 °F 28 °F 16 °F (2007)
Degree Days  
Heating Degree Days 6    
Growing Degree Days 9 (Base 50)    
Moisture  
Dew Point 42 °F    
Average Humidity 52    
Maximum Humidity 67    
Minimum Humidity 26    
Precipitation  
Precipitation 0.00 in - - ()
Sea Level Pressure  
Sea Level Pressure 29.96 in    
Wind  
Wind Speed 14 mph (West)    
Max Wind Speed 21 mph    
Max Gust Speed 31 mph    
Visibility 10 miles    
Events      
Averages and records for this station are not official NWS values.
T = Trace of Precipitation, MM = Missing Value Source: NWS Daily Summary

Daily Weather History Graph

Daily Weather History Graph

Search for Another Location

Airport:

Trip Planner

Search our weather history database for the weather conditions in past years. The results will help you decide how hot, cold, wet, or windy it might be!

Date:

Astronomy

Nov. 22, 2012 Rise Set
Actual Time 7:20 AM CST 5:14 PM CST
Civil Twilight 6:51 AM CST 5:43 PM CST
Nautical Twilight 6:19 AM CST 6:15 PM CST
Astronomical Twilight 5:47 AM CST 6:47 PM CST
Moon 1:56 PM CST (11/22) 1:46 AM CST (11/22)
Length of Visible Light 10h 51m
Length of Day
9h 54m
Waxing Gibbous, 71% of the Moon is Illuminated
Nov 22
Waxing Gibbous
Nov 28
Full
Dec 6
Last Quarter
Dec 13
New
Dec 19
First Quarter

Hourly Weather History & Observations

Time (CST) Temp. Windchill Dew Point Humidity Pressure Visibility Wind Dir Wind Speed Gust Speed Precip Events Conditions
12:52 AM 57.9 °F - 45.0 °F 62% 29.85 in 10.0 mi South 13.8 mph - N/A   Clear
1:52 AM 61.0 °F - 46.9 °F 60% 29.83 in 10.0 mi South 16.1 mph 23.0 mph N/A   Clear
2:52 AM 61.0 °F - 46.9 °F 60% 29.82 in 10.0 mi South 15.0 mph - N/A   Clear
3:52 AM 61.0 °F - 48.0 °F 62% 29.81 in 10.0 mi South 15.0 mph - N/A   Clear
4:52 AM 60.1 °F - 48.0 °F 64% 29.79 in 10.0 mi South 19.6 mph 23.0 mph N/A   Clear
5:52 AM 60.1 °F - 48.9 °F 67% 29.79 in 10.0 mi South 16.1 mph - N/A   Clear
6:52 AM 60.1 °F - 48.9 °F 67% 29.80 in 10.0 mi South 10.4 mph - N/A   Clear
7:52 AM 60.1 °F - 48.9 °F 67% 29.81 in 10.0 mi South 13.8 mph - N/A   Clear
8:52 AM 63.0 °F - 48.9 °F 60% 29.83 in 10.0 mi South 12.7 mph - N/A   Clear
9:52 AM 64.9 °F - 50.0 °F 58% 29.83 in 10.0 mi SSW 19.6 mph - N/A   Clear
10:52 AM 64.9 °F - 50.0 °F 58% 29.86 in 10.0 mi WSW 10.4 mph - N/A   Clear
11:52 AM 69.1 °F - 48.9 °F 49% 29.86 in 10.0 mi West 9.2 mph - N/A   Clear
12:52 PM 69.1 °F - 48.0 °F 47% 29.86 in 10.0 mi WSW 6.9 mph - N/A   Clear
1:52 PM 73.0 °F - 45.0 °F 37% 29.86 in 10.0 mi WNW 8.1 mph - N/A   Clear
2:52 PM 73.9 °F - 41.0 °F 30% 29.88 in 10.0 mi NNW 16.1 mph 24.2 mph N/A   Clear
3:52 PM 71.1 °F - 34.0 °F 26% 29.94 in 10.0 mi North 17.3 mph 31.1 mph N/A   Clear
4:52 PM 64.0 °F - 35.1 °F 34% 30.02 in 10.0 mi North 20.7 mph 28.8 mph N/A   Clear
5:52 PM 60.1 °F - 37.0 °F 42% 30.08 in 10.0 mi North 19.6 mph 28.8 mph N/A   Clear
6:52 PM 55.9 °F - 36.0 °F 47% 30.16 in 10.0 mi North 11.5 mph - N/A   Clear
7:52 PM 53.1 °F - 35.1 °F 50% 30.22 in 10.0 mi North 12.7 mph - N/A   Clear
8:52 PM 51.1 °F - 33.1 °F 50% 30.26 in 10.0 mi North 12.7 mph 20.7 mph N/A   Clear
9:52 PM 48.9 °F - 30.0 °F 48% 30.27 in 10.0 mi North 9.2 mph - N/A   Clear
10:52 PM 45.0 °F 39.7 °F 30.0 °F 56% 30.30 in 10.0 mi NNW 10.4 mph - N/A   Clear
11:52 PM 44.1 °F 38.6 °F 27.0 °F 51% 30.32 in 10.0 mi North 10.4 mph - N/A   Clear